TimeCDT,TemperatureF,Dew PointF,Humidity,Sea Level PressureIn,VisibilityMPH,Wind Direction,Wind SpeedMPH,Gust SpeedMPH,PrecipitationIn,Events,Conditions,WindDirDegrees,DateUTC
12:56 AM,23.7,20.7,88,29.95,0.8,WNW,16.1,-,0.00,Snow,Light Snow,300,2013-03-11 05:56:00
1:20 AM,23.0,21.2,93,29.95,0.8,NW,17.3,-,N/A,Snow,Light Snow,310,2013-03-11 06:20:00
1:45 AM,23.0,21.2,93,29.95,1.0,NW,16.1,24.2,N/A,Snow,Light Snow,310,2013-03-11 06:45:00
1:46 AM,23.0,21.2,93,29.95,1.0,NW,18.4,-,N/A,Snow,Light Snow,310,2013-03-11 06:46:00
1:55 AM,23.5,20.3,87,29.95,1.0,WNW,18.4,24.2,0.00,Snow,Light Snow,300,2013-03-11 06:55:00
2:55 AM,23.7,20.3,87,29.94,1.0,WNW,19.6,-,0.00,Snow,Light Snow,300,2013-03-11 07:55:00
3:03 AM,23.0,21.2,93,29.93,0.8,NW,16.1,-,N/A,Snow,Light Snow,310,2013-03-11 08:03:00
3:09 AM,23.0,21.2,93,29.93,1.0,WNW,18.4,-,N/A,Snow,Light Snow,300,2013-03-11 08:09:00
3:36 AM,23.0,19.4,86,29.93,1.0,WNW,13.8,-,N/A,Snow,Light Snow,300,2013-03-11 08:36:00
3:45 AM,23.0,19.4,86,29.93,0.8,NW,12.7,-,N/A,Snow,Light Snow,310,2013-03-11 08:45:00
3:51 AM,23.0,21.2,93,29.93,1.0,WNW,13.8,-,N/A,Snow,Light Snow,300,2013-03-11 08:51:00
3:55 AM,23.2,20.5,89,29.93,1.0,NW,12.7,-,0.00,Snow,Light Snow,310,2013-03-11 08:55:00
4:15 AM,23.0,19.4,86,29.92,1.0,NW,15.0,-,N/A,Snow,Light Snow,310,2013-03-11 09:15:00
4:25 AM,23.0,19.4,86,29.91,1.0,NW,16.1,-,N/A,Snow,Light Snow,310,2013-03-11 09:25:00
4:38 AM,23.0,19.4,86,29.92,1.0,WNW,17.3,-,N/A,Snow,Blowing Snow,300,2013-03-11 09:38:00
4:39 AM,23.0,19.4,86,29.92,1.0,WNW,16.1,-,N/A,,Haze,300,2013-03-11 09:39:00
4:45 AM,23.0,19.4,86,29.92,1.0,WNW,18.4,-,N/A,,Overcast,300,2013-03-11 09:45:00
4:47 AM,23.0,19.4,86,29.92,1.0,WNW,17.3,-,N/A,,Overcast,300,2013-03-11 09:47:00
4:53 AM,23.0,19.4,86,29.92,1.0,WNW,18.4,-,N/A,,Freezing Rain,300,2013-03-11 09:53:00
4:55 AM,22.8,19.2,86,29.92,1.0,WNW,17.3,-,0.00,,Freezing Rain,300,2013-03-11 09:55:00
5:05 AM,23.0,19.4,86,29.92,1.2,WNW,16.1,25.3,N/A,,Freezing Rain,300,2013-03-11 10:05:00
5:20 AM,23.0,19.4,86,29.92,1.2,WNW,17.3,-,N/A,,Haze,300,2013-03-11 10:20:00
5:28 AM,23.0,19.4,86,29.92,1.2,NW,13.8,21.9,N/A,,Haze,310,2013-03-11 10:28:00
5:55 AM,23.2,18.9,84,29.92,1.2,NW,17.3,23.0,0.00,,Haze,310,2013-03-11 10:55:00
6:55 AM,23.0,18.7,84,29.92,10.0,NW,16.1,-,N/A,,Overcast,310,2013-03-11 11:55:00
7:55 AM,22.6,17.6,81,29.94,10.0,NW,12.7,-,N/A,,Overcast,310,2013-03-11 12:55:00
8:55 AM,22.6,17.6,81,29.96,10.0,NW,12.7,-,N/A,,Overcast,310,2013-03-11 13:55:00
9:17 AM,23.0,17.6,80,29.96,10.0,NW,13.8,-,N/A,,Overcast,310,2013-03-11 14:17:00
9:55 AM,22.8,17.6,80,29.97,10.0,NW,15.0,-,0.00,,Overcast,310,2013-03-11 14:55:00
10:10 AM,23.0,17.6,80,29.97,10.0,NW,13.8,-,N/A,,Overcast,310,2013-03-11 15:10:00
10:55 AM,23.2,17.2,78,29.97,10.0,WNW,17.3,-,0.00,,Overcast,300,2013-03-11 15:55:00
11:43 AM,24.8,17.6,74,29.96,10.0,NW,12.7,-,N/A,,Scattered Clouds,320,2013-03-11 16:43:00
11:55 AM,25.2,15.8,68,29.96,10.0,NW,9.2,-,N/A,,Scattered Clouds,320,2013-03-11 16:55:00
12:55 PM,26.8,18.1,70,29.96,10.0,WNW,15.0,-,N/A,,Partly Cloudy,300,2013-03-11 17:55:00
1:55 PM,26.4,17.4,69,29.94,10.0,NW,11.5,-,N/A,,Scattered Clouds,310,2013-03-11 18:55:00
2:55 PM,28.4,18.5,66,29.93,10.0,West,9.2,-,N/A,,Clear,270,2013-03-11 19:55:00
3:55 PM,29.8,18.9,64,29.93,10.0,West,10.4,-,N/A,,Clear,270,2013-03-11 20:55:00
4:55 PM,30.7,19.2,62,29.94,10.0,WNW,10.4,-,N/A,,Clear,290,2013-03-11 21:55:00
5:55 PM,30.4,17.1,58,29.94,10.0,West,6.9,-,N/A,,Clear,270,2013-03-11 22:55:00
6:55 PM,30.0,16.9,58,29.95,10.0,SW,5.8,-,N/A,,Clear,230,2013-03-11 23:55:00
7:55 PM,28.6,16.3,60,29.97,10.0,Calm,Calm,-,N/A,,Clear,0,2013-03-12 00:55:00
8:55 PM,27.0,16.7,65,30.00,10.0,West,4.6,-,N/A,,Clear,260,2013-03-12 01:55:00
9:55 PM,19.8,14.4,80,30.01,10.0,Calm,Calm,-,N/A,,Clear,0,2013-03-12 02:55:00
10:55 PM,19.4,17.1,91,30.03,10.0,Calm,Calm,-,N/A,,Clear,0,2013-03-12 03:55:00
11:55 PM,22.5,16.0,76,30.05,10.0,West,5.8,-,N/A,,Clear,280,2013-03-12 04:55:00